#timestamp,LO_Frequency,Hit,StdDev 
1627894815.6,286047002.1,N
1627894835.5,286047002.1,N
1627894855.3,286047002.1,N
1627894875.1,286047001.5,N
1627894895.9,286047002.7,N
1627894915.7,286046999.7,N
1627894935.6,286047001.8,N
1627894955.4,286047004.2,N
1627894975.2,286047001.9,N
1627894995.1,286047000.1,N
1627894996.0,286047000.1,N
1627895015.8,286046999.2,N
1627895035.6,286046995.0,N
1627895055.5,286046994.5,N
1627895075.3,286046993.1,N
1627895095.2,286046992.7,N
1627895115.9,286046990.4,Y
1627895135.7,286046993.2,P
1627895155.6,286046992.0,N
1627895175.4,286046993.2,N
1627895195.2,286046991.6,N
1627895215.1,286046991.1,N
1627895216.0,286046991.1,N
1627895235.8,286046988.6,Y
1627895255.7,286046997.6,P
1627895275.5,286046995.4,N
1627895295.3,286046997.2,N
1627895315.2,286047001.1,N
1627895335.0,286047000.0,N
1627895335.9,286047000.0,N
1627895355.8,286047002.2,N
1627895375.6,286047004.1,N
1627895395.4,286047002.5,N
1627895415.3,286046999.9,N
1627895435.1,286047002.6,N
1627895455.9,286047001.4,N
1627895475.7,286047003.9,N
1627895495.5,286047001.9,N
1627895515.4,286047005.8,N
1627895535.2,286047007.3,N
1627895555.0,286047006.9,N
1627895555.9,286047006.9,N
1627895575.8,286047008.4,N
1627895595.6,286047010.4,N
1627895615.5,286047008.9,N
1627895635.3,286047007.5,N
1627895655.1,286047005.3,N
1627895675.9,286047004.7,N
1627895695.7,286047004.9,N
1627895715.5,286047006.7,N
1627895735.4,286047008.3,N
1627895755.2,286047009.7,N
1627895775.1,286047012.4,N
1627895776.0,286047012.4,N
1627895795.8,286047012.1,N
1627895815.6,286047009.5,N
1627895835.5,286047010.8,N
1627895855.3,286047008.9,N
1627895875.1,286047008.9,N
1627895895.9,286047008.2,N
1627895915.7,286047010.4,Y
1627895935.6,286047004.3,P
1627895955.4,286047002.9,N
1627895975.2,286047004.8,N
1627895995.1,286047005.5,Y
1627895996.0,286047005.5,P
1627896015.8,286046999.4,N
1627896035.6,286046997.8,N
1627896055.5,286046997.5,N
1627896075.3,286046996.4,N
1627896095.2,286046995.6,N
1627896115.9,286046993.5,N
1627896135.7,286046994.6,N
1627896155.6,286046994.0,N
1627896175.4,286046995.8,N
1627896195.2,286046997.5,N
1627896215.1,286046996.5,N
1627896216.0,286046996.5,N
1627896235.8,286046999.4,N
1627896255.7,286046999.1,N
1627896275.5,286046999.3,N
1627896295.3,286046998.0,N
1627896315.2,286046998.0,N
1627896335.9,286046997.6,N
1627896355.7,286046997.3,N
1627896375.6,286046999.0,N
1627896395.4,286046999.1,N
1627896415.2,286046999.4,N
1627896435.1,286046998.5,N
1627896436.0,286046998.5,N
1627896455.8,286047000.5,N
1627896475.7,286047000.1,N
1627896495.5,286047002.5,N
1627896515.3,286047001.9,N
1627896535.2,286047003.7,N
1627896555.0,286047004.0,N
1627896555.9,286047004.0,N
1627896575.8,286047004.4,N
1627896595.6,286047001.8,N
1627896615.4,286047002.5,N
1627896635.3,286047002.4,N
1627896655.1,286047001.6,N
1627896675.8,286047002.1,N
1627896695.7,286047002.1,N
1627896715.5,286046999.7,N
1627896735.4,286047002.5,N
1627896755.2,286047001.7,N
1627896775.0,286047002.6,N
1627896775.9,286047002.6,N
1627896795.8,286047001.9,N
1627896815.6,286046999.8,N
1627896835.5,286047000.4,N
1627896855.3,286047000.3,N
1627896875.1,286046998.2,N
1627896895.9,286046998.6,N
1627896915.7,286047001.0,N
1627896935.6,286047000.7,N
1627896955.4,286046998.7,N
1627896975.2,286046998.9,N
1627896995.1,286046998.7,N
1627896996.0,286046998.7,N
1627897015.8,286046999.5,N
1627897035.6,286046997.0,N
1627897055.5,286046997.8,N
1627897075.3,286046996.6,N
1627897095.2,286046998.7,N
1627897115.9,286046998.7,N
1627897135.7,286046998.6,N
1627897155.6,286047000.5,N
1627897175.4,286047001.0,N
1627897195.2,286047000.7,N
1627897215.1,286047000.7,N
1627897216.0,286047000.7,N
1627897235.8,286047001.1,N
1627897255.7,286047000.4,N
1627897275.5,286047000.3,N
1627897295.3,286047000.0,N
1627897315.2,286047000.6,N
1627897335.0,286047000.6,N
1627897335.9,286047000.6,N
1627897355.7,286046999.9,N
1627897375.6,286047002.0,N
1627897395.4,286047002.4,N
1627897415.3,286047002.7,N
1627897435.1,286047002.8,N
1627897436.0,286047002.8,N
1627897455.8,286046999.9,N
1627897475.7,286047002.3,N
1627897495.5,286047002.3,N
1627897515.3,286047002.1,N
1627897535.2,286047000.8,N
1627897555.0,286047000.3,N
1627897555.9,286047000.3,N
1627897575.8,286047000.3,N
1627897595.6,286047002.4,N
1627897615.4,286047002.7,N
1627897635.3,286046999.9,N
1627897655.1,286047000.5,N
1627897675.8,286046999.8,N
1627897695.7,286047002.8,N
1627897715.5,286047000.0,N
1627897735.4,286046999.7,N
1627897755.2,286047000.5,N
1627897775.0,286046998.1,N
1627897775.9,286046998.1,N
1627897795.8,286047001.1,N
1627897815.6,286047002.5,N
1627897835.5,286047004.4,Y
1627897855.3,286047004.3,P
1627897875.1,286047003.9,N
1627897895.9,286047001.3,N
1627897915.7,286047001.8,N
1627897935.5,286047000.1,N
1627897955.4,286047000.2,N
1627897975.2,286047002.0,N
1627897995.1,286047001.9,N
1627897996.0,286047001.9,N
1627898015.8,286047002.7,N
1627898035.6,286047002.4,N
1627898055.5,286047001.2,N
1627898075.3,286047000.8,N
1627898095.1,286046999.6,N
1627898115.9,286046999.4,N
1627898135.7,286046998.9,N
1627898155.6,286047000.6,N
1627898175.4,286047001.6,N
1627898195.2,286047002.3,N
1627898215.1,286047001.6,N
1627898216.0,286047001.6,N
1627898235.8,286046999.7,N
1627898255.6,286047002.5,N
1627898275.5,286047001.3,N
1627898295.3,286047003.8,N
1627898315.2,286047005.3,Y
1627898335.9,286047005.3,P
1627898355.7,286047005.6,N
1627898375.0,286047001.5,N
1627898375.9,286047001.5,N
1627898395.7,286047002.2,N
